• Em Portugal
  • Lista de países
  • Para 7 dias
  • Temperatura da água
  • Mapas de satélite
  • Mapa do tempo
  • Widgets de tempo
  • user-avatar
    Iniciar Sessão

    Previsão horária em Marianka

    Hoje, 21 Agosto, Terça-feira

    Tempo Temperatura Precipitação Vento Pressão Humidade
    00:00 +17°C° 0 mm 4 m/s 738 mmHg 89%
    01:00 +15°C° 0 mm 4 m/s 738 mmHg 89%
    02:00 +15°C° 0 mm 4 m/s 738 mmHg 90%
    03:00 +14°C° 0 mm 4 m/s 738 mmHg 90%
    04:00 +14°C° 0 mm 4 m/s 738 mmHg 90%
    05:00 +13°C° 0 mm 4 m/s 739 mmHg 90%
    06:00 +14°C° 0 mm 4 m/s 739 mmHg 87%
    07:00 +15°C° 0 mm 5 m/s 739 mmHg 83%
    08:00 +16°C° 0 mm 5 m/s 740 mmHg 77%
    09:00 +17°C° 0,1 mm 5 m/s 740 mmHg 72%
    10:00 +19°C° 0,1 mm 5 m/s 740 mmHg 67%
    11:00 +20°C° 0,1 mm 5 m/s 741 mmHg 61%
    12:00 +20°C° 0,1 mm 5 m/s 741 mmHg 60%
    13:00 +21°C° 0,1 mm 5 m/s 741 mmHg 59%
    14:00 +21°C° 0,1 mm 5 m/s 741 mmHg 57%
    15:00 +21°C° 0 mm 5 m/s 742 mmHg 59%
    16:00 +20°C° 0 mm 5 m/s 742 mmHg 60%
    17:00 +20°C° 0 mm 5 m/s 742 mmHg 61%
    18:00 +18°C° 0 mm 4 m/s 742 mmHg 67%
    19:00 +15°C° 0 mm 4 m/s 743 mmHg 73%
    20:00 +14°C° 0 mm 3 m/s 743 mmHg 79%
    21:00 +13°C° 0 mm 3 m/s 743 mmHg 82%
    22:00 +12°C° 0 mm 3 m/s 744 mmHg 85%
    23:00 +12°C° 0 mm 2 m/s 744 mmHg 89%

    Amanhã, 22 Agosto, Quarta-feira

    Tempo Temperatura Precipitação Vento Pressão Humidade
    00:00 +10°C° 0 mm 2 m/s 745 mmHg 90%
    01:00 +10°C° 0 mm 2 m/s 745 mmHg 91%
    02:00 +9°C° 0 mm 2 m/s 745 mmHg 92%
    03:00 +10°C° 0 mm 1 m/s 745 mmHg 93%
    04:00 +9°C° 0 mm 1 m/s 746 mmHg 93%
    05:00 +9°C° 0 mm 1 m/s 746 mmHg 93%
    06:00 +11°C° 0 mm 1 m/s 746 mmHg 87%
    07:00 +12°C° 0 mm 1 m/s 746 mmHg 81%
    08:00 +14°C° 0 mm 1 m/s 747 mmHg 75%
    09:00 +15°C° 0 mm 1 m/s 747 mmHg 67%
    10:00 +18°C° 0 mm 1 m/s 747 mmHg 60%
    11:00 +18°C° 0 mm 2 m/s 747 mmHg 52%
    12:00 +20°C° 0 mm 1 m/s 747 mmHg 49%
    13:00 +21°C° 0 mm 1 m/s 747 mmHg 47%
    14:00 +22°C° 0 mm 1 m/s 746 mmHg 44%
    15:00 +22°C° 0 mm 1 m/s 746 mmHg 45%
    16:00 +22°C° 0 mm 1 m/s 746 mmHg 45%
    17:00 +22°C° 0 mm 1 m/s 746 mmHg 46%
    18:00 +20°C° 0 mm 1 m/s 746 mmHg 52%
    19:00 +17°C° 0 mm 2 m/s 745 mmHg 57%
    20:00 +15°C° 0 mm 2 m/s 745 mmHg 63%
    21:00 +14°C° 0 mm 2 m/s 745 mmHg 66%
    22:00 +14°C° 0 mm 2 m/s 745 mmHg 68%
    23:00 +12°C° 0 mm 3 m/s 745 mmHg 71%

    Depois de amanhã, 23 Agosto, Quinta-feira

    Tempo Temperatura Precipitação Vento Pressão Humidade
    00:00 +12°C° 0 mm 3 m/s 745 mmHg 72%
    01:00 +11°C° 0 mm 3 m/s 745 mmHg 73%
    02:00 +11°C° 0 mm 3 m/s 745 mmHg 74%
    03:00 +11°C° 0 mm 3 m/s 745 mmHg 74%
    04:00 +11°C° 0 mm 3 m/s 745 mmHg 75%
    05:00 +11°C° 0 mm 3 m/s 744 mmHg 76%
    06:00 +12°C° 0 mm 4 m/s 744 mmHg 73%
    07:00 +13°C° 0 mm 4 m/s 744 mmHg 70%
    08:00 +15°C° 0 mm 4 m/s 744 mmHg 68%
    09:00 +18°C° 0 mm 4 m/s 744 mmHg 64%
    10:00 +20°C° 0 mm 4 m/s 744 mmHg 60%
    11:00 +21°C° 0 mm 4 m/s 744 mmHg 56%
    12:00 +22°C° 0 mm 4 m/s 743 mmHg 54%
    13:00 +23°C° 0 mm 4 m/s 743 mmHg 52%
    14:00 +25°C° 0 mm 4 m/s 743 mmHg 50%
    15:00 +25°C° 0 mm 4 m/s 742 mmHg 52%
    16:00 +25°C° 0 mm 3 m/s 742 mmHg 54%
    17:00 +25°C° 0 mm 3 m/s 741 mmHg 56%
    18:00 +22°C° 0 mm 3 m/s 741 mmHg 62%
    19:00 +20°C° 0 mm 3 m/s 741 mmHg 67%
    20:00 +19°C° 0 mm 3 m/s 741 mmHg 73%
    21:00 +18°C° 0 mm 3 m/s 741 mmHg 72%
    22:00 +18°C° 0 mm 3 m/s 740 mmHg 72%
    23:00 +18°C° 0 mm 4 m/s 740 mmHg 71%

    24 Agosto, Sexta-feira

    Tempo Temperatura Precipitação Vento Pressão Humidade
    00:00 +18°C° 0 mm 4 m/s 740 mmHg 74%
    01:00 +17°C° 0 mm 3 m/s 740 mmHg 77%
    02:00 +17°C° 0 mm 3 m/s 739 mmHg 80%
    03:00 +17°C° 0 mm 3 m/s 739 mmHg 82%
    04:00 +17°C° 0 mm 3 m/s 739 mmHg 84%
    05:00 +17°C° 0 mm 3 m/s 739 mmHg 86%
    06:00 +17°C° 0 mm 4 m/s 738 mmHg 84%
    07:00 +18°C° 0 mm 4 m/s 738 mmHg 82%
    08:00 +19°C° 0 mm 4 m/s 738 mmHg 80%
    09:00 +20°C° 0 mm 4 m/s 738 mmHg 74%
    10:00 +22°C° 0 mm 5 m/s 738 mmHg 69%
    11:00 +25°C° 0 mm 5 m/s 737 mmHg 64%
    12:00 +26°C° 0 mm 5 m/s 737 mmHg 62%
    13:00 +27°C° 0 mm 5 m/s 737 mmHg 60%
    14:00 +27°C° 0 mm 5 m/s 736 mmHg 58%
    15:00 +27°C° 0,2 mm 5 m/s 736 mmHg 60%
    16:00 +27°C° 0,2 mm 4 m/s 735 mmHg 63%
    17:00 +27°C° 0,2 mm 4 m/s 735 mmHg 65%
    18:00 +26°C° 0,7 mm 4 m/s 735 mmHg 70%
    19:00 +23°C° 0,7 mm 4 m/s 734 mmHg 74%
    20:00 +22°C° 0,7 mm 4 m/s 734 mmHg 79%
    21:00 +21°C° 1,3 mm 4 m/s 734 mmHg 82%
    22:00 +21°C° 1,3 mm 4 m/s 734 mmHg 85%
    23:00 +20°C° 1,3 mm 5 m/s 734 mmHg 88%

    25 Agosto, Sábado

    Tempo Temperatura Precipitação Vento Pressão Humidade
    00:00 +20°C° 0,7 mm 4 m/s 734 mmHg 90%
    01:00 +19°C° 0,7 mm 4 m/s 734 mmHg 92%
    02:00 +19°C° 0,7 mm 4 m/s 734 mmHg 94%
    03:00 +19°C° 0,4 mm 3 m/s 733 mmHg 95%
    04:00 +18°C° 0,4 mm 3 m/s 733 mmHg 96%
    05:00 +18°C° 0,4 mm 3 m/s 733 mmHg 97%
    06:00 +18°C° 0,5 mm 3 m/s 734 mmHg 96%
    07:00 +18°C° 0,5 mm 3 m/s 734 mmHg 95%
    08:00 +19°C° 0,5 mm 2 m/s 734 mmHg 94%
    09:00 +18°C° 0,3 mm 3 m/s 735 mmHg 93%
    10:00 +18°C° 0,3 mm 3 m/s 735 mmHg 92%
    11:00 +18°C° 0,3 mm 3 m/s 735 mmHg 91%
    12:00 +18°C° 0,2 mm 3 m/s 736 mmHg 90%
    13:00 +18°C° 0,2 mm 3 m/s 736 mmHg 90%
    14:00 +17°C° 0,2 mm 3 m/s 736 mmHg 89%
    15:00 +17°C° 0,2 mm 3 m/s 736 mmHg 90%
    16:00 +17°C° 0,2 mm 3 m/s 737 mmHg 90%
    17:00 +16°C° 0,2 mm 3 m/s 737 mmHg 90%
    18:00 +16°C° 0 mm 2 m/s 737 mmHg 92%
    19:00 +15°C° 0 mm 2 m/s 737 mmHg 93%
    20:00 +15°C° 0 mm 2 m/s 737 mmHg 94%
    21:00 +14°C° 0 mm 2 m/s 738 mmHg 94%
    22:00 +14°C° 0 mm 2 m/s 738 mmHg 94%
    23:00 +14°C° 0 mm 2 m/s 738 mmHg 94%

    26 Agosto, Domingo

    Tempo Temperatura Precipitação Vento Pressão Humidade
    00:00 +13°C° 0 mm 2 m/s 738 mmHg 94%
    01:00 +13°C° 0 mm 2 m/s 738 mmHg 93%
    02:00 +13°C° 0 mm 2 m/s 738 mmHg 93%
    03:00 +13°C° 0,1 mm 2 m/s 738 mmHg 93%
    04:00 +12°C° 0,1 mm 3 m/s 738 mmHg 93%
    05:00 +12°C° 0,1 mm 3 m/s 738 mmHg 93%
    06:00 +12°C° 0,4 mm 3 m/s 738 mmHg 93%
    07:00 +12°C° 0,4 mm 4 m/s 738 mmHg 94%
    08:00 +12°C° 0,4 mm 4 m/s 737 mmHg 94%
    09:00 +13°C° 1,1 mm 4 m/s 737 mmHg 94%
    10:00 +13°C° 1,1 mm 4 m/s 737 mmHg 94%
    11:00 +13°C° 1,1 mm 4 m/s 737 mmHg 94%
    12:00 +14°C° 1 mm 4 m/s 736 mmHg 93%
    13:00 +14°C° 1 mm 4 m/s 736 mmHg 93%
    14:00 +15°C° 1 mm 4 m/s 736 mmHg 92%
    15:00 +15°C° 0,5 mm 4 m/s 736 mmHg 92%
    16:00 +14°C° 0,5 mm 4 m/s 736 mmHg 93%
    17:00 +14°C° 0,5 mm 5 m/s 735 mmHg 93%
    18:00 +13°C° 1,5 mm 5 m/s 735 mmHg 94%
    19:00 +12°C° 1,5 mm 5 m/s 736 mmHg 95%
    20:00 +10°C° 1,5 mm 5 m/s 736 mmHg 95%
    21:00 +10°C° 1,1 mm 5 m/s 736 mmHg 95%
    22:00 +9°C° 1,1 mm 5 m/s 736 mmHg 95%
    23:00 +9°C° 1,1 mm 5 m/s 737 mmHg 95%
    Mostrar mais